Location: Baix
(44.7118°N, 4.7648°E)
Time: 15:48:24
(UTC+00:00)

Explorer 11/Cluster Stage 4 - Pass Details

Date: 05 December 2020
Orbit: 467 x 1258 km, 28.8° (Epoch: 14 January)

Event Time Altitude Azimuth Distance (km) Brightness Sun altitude
Rises 18:14:44 0° 224° (SW) 4,187 11.1 -23.0°
Reaches altitude 10° 18:18:37 10° 209° (SSW) 3,222 10.2 -23.7°
Maximum altitude 18:24:02 20° 167° (SSE) 2,514 9.1 -24.7°
Enters shadow 18:26:27 17° 145° (SE) 2,621 9.0 -25.1°
Drops below altitude 10° 18:29:13 10° 125° (SE) 3,050 - -25.6°
Sets 18:32:44 0° 109° (ESE) 3,897 - -26.2°
